Weather History for Mineral Wells, TX

Change the Weather History Date:

Sunday, July 28, 2013

  Actual Average Record
Temperature  
Mean Temperature 77 °F -  
Max Temperature 91 °F 96 °F 107 °F (2008)
Min Temperature 64 °F 72 °F 64 °F (2013)
Cooling Degree Days 12    
Growing Degree Days 27 (Base 50)    
Moisture  
Dew Point 65 °F    
Average Humidity 65    
Maximum Humidity 93    
Minimum Humidity 42    
Precipitation  
Precipitation 0.00 in - - ()
Sea Level Pressure  
Sea Level Pressure 29.91 in    
Wind  
Wind Speed 6 mph (SE)    
Max Wind Speed 14 mph    
Max Gust Speed 32 mph    
Visibility 10 miles    
Events      
Averages and records for this station are not official NWS values.
T = Trace of Precipitation, MM = Missing Value Source: NWS Daily Summary

Daily Weather History Graph

Daily Weather History Graph

Search for Another Location

Airport:

Trip Planner

Search our weather history database for the weather conditions in past years. The results will help you decide how hot, cold, wet, or windy it might be!

Date:

Astronomy

Jul. 28, 2013 Rise Set
Actual Time 6:43 AM CDT 8:33 PM CDT
Civil Twilight 6:16 AM CDT 9:00 PM CDT
Nautical Twilight 5:43 AM CDT 9:33 PM CDT
Astronomical Twilight 5:08 AM CDT 10:08 PM CDT
Moon No Moon Rise 1:01 PM CDT
Length of Visible Light 14h 44m
Length of Day
13h 49m
Waning Gibbous, 60% of the Moon is Illuminated
Jul 28
Waning Gibbous
Jul 29
Last Quarter
Aug 6
New
Aug 14
First Quarter
Aug 20
Full

Hourly Weather History & Observations

Time (CDT) Temp. Heat Index Dew Point Humidity Pressure Visibility Wind Dir Wind Speed Gust Speed Precip Events Conditions
12:53 AM 71.1 °F - 62.1 °F 73% 29.94 in 10.0 mi SE 5.8 mph - N/A   Clear
1:53 AM 70.0 °F - 63.0 °F 78% 29.93 in 10.0 mi SSE 5.8 mph - N/A   Clear
2:53 AM 68.0 °F - 63.0 °F 84% 29.93 in 10.0 mi ESE 4.6 mph - N/A   Clear
3:53 AM 66.9 °F - 63.0 °F 87% 29.92 in 10.0 mi SE 3.5 mph - N/A   Clear
4:53 AM 66.0 °F - 63.0 °F 90% 29.91 in 10.0 mi SE 4.6 mph - N/A   Clear
5:53 AM 64.9 °F - 63.0 °F 93% 29.92 in 10.0 mi Calm Calm - N/A   Clear
6:53 AM 66.9 °F - 64.0 °F 90% 29.94 in 10.0 mi East 3.5 mph - N/A   Clear
7:53 AM 69.1 °F - 66.0 °F 90% 29.95 in 10.0 mi Calm Calm - N/A   Clear
8:53 AM 73.9 °F - 68.0 °F 82% 29.96 in 10.0 mi SE 5.8 mph - N/A   Partly Cloudy
9:53 AM 78.1 °F - 66.9 °F 68% 29.96 in 10.0 mi SE 11.5 mph - N/A   Mostly Cloudy
10:53 AM 81.0 °F 83.3 °F 66.9 °F 62% 29.95 in 10.0 mi ESE 9.2 mph - N/A   Scattered Clouds
11:08 AM 80.6 °F 82.7 °F 66.2 °F 61% 29.99 in 10.0 mi SSE 10.4 mph - N/A   Mostly Cloudy
11:20 AM 82.4 °F 84.6 °F 66.2 °F 58% 29.99 in 10.0 mi SE 11.5 mph 16.1 mph N/A   Mostly Cloudy
11:53 AM 81.0 °F 83.3 °F 66.9 °F 62% 29.95 in 10.0 mi South 9.2 mph - N/A   Mostly Cloudy
12:53 PM 84.0 °F 86.3 °F 66.0 °F 55% 29.93 in 10.0 mi ESE 9.2 mph - N/A   Mostly Cloudy
1:53 PM 87.1 °F 89.9 °F 66.9 °F 51% 29.91 in 10.0 mi SE 8.1 mph 18.4 mph N/A   Scattered Clouds
2:53 PM 89.1 °F 91.3 °F 66.0 °F 46% 29.89 in 10.0 mi SE 12.7 mph 32.2 mph N/A   Scattered Clouds
3:53 PM 89.1 °F 91.0 °F 64.9 °F 45% 29.87 in 10.0 mi SE 13.8 mph 19.6 mph N/A   Scattered Clouds
4:53 PM 90.0 °F 91.3 °F 64.0 °F 42% 29.85 in 10.0 mi South 5.8 mph 17.3 mph N/A   Clear
5:53 PM 89.1 °F 90.0 °F 63.0 °F 42% 29.83 in 10.0 mi SE 9.2 mph 20.7 mph N/A   Partly Cloudy
6:53 PM 90.0 °F 91.7 °F 64.9 °F 43% 29.83 in 10.0 mi ESE 12.7 mph - N/A   Clear
7:53 PM 87.1 °F 88.9 °F 64.9 °F 48% 29.85 in 10.0 mi ESE 3.5 mph 29.9 mph N/A   Clear
8:53 PM 82.9 °F 84.6 °F 64.9 °F 54% 29.86 in 10.0 mi SE 4.6 mph - N/A   Clear
9:53 PM 80.1 °F 82.1 °F 66.0 °F 62% 29.87 in 10.0 mi ESE 5.8 mph - N/A   Clear
10:53 PM 80.1 °F 82.1 °F 66.0 °F 62% 29.88 in 10.0 mi SE 5.8 mph - N/A   Scattered Clouds
11:53 PM 80.1 °F 82.1 °F 66.0 °F 62% 29.88 in 10.0 mi SE 5.8 mph - N/A   Clear